Location: Austin
(30.3000°N, 97.7500°W)
Time: 23:06:25
(UTC-06:00)

Helios 1A Rocket - Pass Details

Date: 03 December 2025
Orbit: 440 x 452 km, 98.3° (Epoch: 07 December)

Event Time Altitude Azimuth Distance (km) Brightness Sun altitude
Rises 06:28:24 0° 180° (S) 2,410 6.4 -9.5°
Reaches altitude 10° 06:30:28 10° 187° (S) 1,545 5.3 -9.0°
Maximum altitude 06:33:37 42° 260° (W) 635 2.8 -8.4°
Drops below altitude 10° 06:36:48 10° 333° (NNW) 1,557 4.7 -7.8°
Enters shadow 06:38:52 - 340° (NNW) 2,415 5.7 -7.3°
